Regional Weather Roundup
Issued by NWS Pendleton, OR

Home | Current Version | Previous Version | Text Only | Print | Product List | Glossary On
Versions: 1 2 3 4 5 6 7 8 9 10 11 12 13 14 15 16 17 18 19 20 21 22 23 24 25 26 27 28 29 30 31 32 33 34 35 36 37 38 39 40 41 42 43 44 45 46 47 48 49 50
000
ASUS46 KPDT 302310
RWRPDT
PENDLETON REGIONAL WEATHER ROUNDUP
NATIONAL WEATHER SERVICE PENDLETON OREGON
400 PM PDT WED JUL 30 2014

NOTE: FAIR INDICATES FEW OR NO CLOUDS BELOW 12,000 FEET WITH NO
SIGNIFICANT WEATHER AND/OR OBSTRUCTIONS TO VISIBILITY.

# INDICATES UNOFFICIAL STATION AND DATA

WAZ520-310010-
EAST SLOPES OF WASHINGTON CASCADES

CITY            SKY/WX      TMP DP  RH  WIND    PRES   REMARKS
#BUMPING DAM    N/A         84  N/A N/A S6      N/A
#CLE ELUM HS    N/A         87  48  26  NW9     29.99F
#CLE ELUM LAKE  N/A         87  46  24  W2      29.92S
#CLIFFDEL 2NW   N/A         88  41  19  NW6     N/A
#GLENWOOD       N/A         91  61  37  S6      29.90F HX 91
#MANASTASH CYN  N/A         90  43  20  NW2     30.04F HX 86
#NELSON         N/A         87  50  28  SW1     29.94
#NELSON 3SW     N/A         86  44  23  CALM    30.13F
#NILE           N/A         92  36  14  SW6     29.19S HX 88
#PEOH POINT     N/A         85  45  25  W3      N/A
#RONALD 2NW     N/A         87  48  26  W3      29.98S
#TROUT LAKE 1NE N/A         93  42  17  NW5     29.91S HX 89
$$

WAZ521-310010-
SIMCOE HIGHLANDS

CITY            SKY/WX      TMP DP  RH  WIND    PRES   REMARKS
#BICKLETON HS   N/A         92  19   7  W7      30.12S HX 88
#CENTERVILLE 1SWN/A         97  40  14  W7      29.85F HX 92
#GOLDENDALE 1NE N/A         97  26   8  SW6     N/A    HX 92
#GOLDENDALE 1S  N/A         98  47  18  W5      29.98F HX 94
#GOLDENDALE 5WNWN/A         96  48  20  SW9     29.87F HX 93
#GOODNOE HILLS  N/A         103 44  14  SW15    29.89F HX 99
#LYLE 6NE       N/A         88  58  36  SW8     29.89F
$$

WAZ026-310010-
KITTITAS VALLEY

CITY            SKY/WX      TMP DP  RH  WIND    PRES   REMARKS
ELLENSBURG AP   PTCLDY      99  42  14  NW16    30.00F HX 95
#ELLENSBURG CWU N/A         97  38  13  NW13    29.84F HX 92
#ELLENSBURG 3NE N/A         93  42  17  NW8     29.99F HX 89
#ELLENSBURG 1E  N/A         98  34  11  CALM    N/A    HX 93
#KITTITAS 3S    N/A         90  52  27  NW7     29.87F HX 87
#THORP 6N       N/A         88  44  22  W20G30  29.91F
$$

WAZ027-310010-
YAKIMA VALLEY

CITY            SKY/WX      TMP DP  RH  WIND    PRES   REMARKS
YAKIMA AIRPORT  PTCLDY      103 37  10  N5      29.94F HX 98
YAKIMA-VAGABOND PTCLDY      100 33  10  W8      29.96F HX 95
#COWICHE 1N     N/A         94  45  19  S1      30.09F HX 90
#DONALD 2NE     N/A         106 45  13  E1      30.25F HX 102
#GRANDVIEW      N/A         98  51  21  CALM    29.87F HX 95
#MABTON         N/A         97  59  29  N9      29.89F HX 97
#MOXEE 2E       N/A         99  11   4  S3      29.82F HX 93
#NACHES 2SW     N/A         96  59  29  S1      30.04S HX 95
#TERRACE HTS    N/A         102 44  14  S1      29.83F HX 98
#TOPPENISH      N/A         96  56  26  E1      29.78F HX 94
#WAPATO 4NE     N/A         106 45  13  E1      30.25F HX 102
#WEST VALLEY    N/A         98  42  15  CALM    29.84F HX 94
#W YAKIMA       N/A         99  43  15  N1      29.86F HX 95
#WHITE SWAN 5E  N/A         94  62  35  NE3     29.86F HX 95
#WILEY CITY 3W  N/A         94  34  12  CALM    29.95F HX 89
$$

WAZ028-310010-
LOWER COLUMBIA BASIN...WASHINGTON

CITY            SKY/WX      TMP DP  RH  WIND    PRES   REMARKS
HANFORD         PTCLDY      106 33   8  SW10    29.90F HX 100
PASCO           PTCLDY      104 51  17  VRB3    29.89F HX 101
PROSSER AWOS    N/A         100 52  20  N9      29.92F HX 97
RICHLAND AWOS   PTCLDY      104 48  15  E7      29.88F HX 100
#BASIN CITY 5SW N/A         97  63  33  CALM    29.91F HX 99
#BENTON CITY    N/A         99  51  20  CALM    29.76F HX 96
#CONNELL 5N     N/A         101 45  15  SW2     29.87F HX 97
#CONNELL 5NW    N/A         97  54  24  CALM    29.83F HX 95
#ELTOPIA 6NW    N/A         97  63  33  S1      28.90F HX 99
#KENNEWICK 3S   N/A         100 59  26  CALM    29.86F HX 100
#PASCO-BROADMOORN/A         108 40  10  SE1     29.74F HX 103
#PATERSON       N/A         101 46  16  SE1     29.84F HX 97
#PROSSER        N/A         102 46  15  CALM    29.85F HX 98
#SAGEMOOR 2W    N/A         100 54  22  CALM    29.73F HX 98
#TOUCHET 2S     N/A         102 53  20  NW3     29.83F HX 100
#WEST PASCO     N/A         105 61  24  SE1     29.87F HX 107
$$

WAZ029-310010-
FOOTHILLS OF THE BLUES...WASHINGTON

CITY            SKY/WX      TMP DP  RH  WIND    PRES   REMARKS
WALLA WALLA AP  SUNNY       102 40  12  VRB6    29.95F HX 97
#COLLEGE PLACE  N/A         108 50  15  W1      29.89F HX 105
#DAYTON SCHOOL  N/A         99  43  15  NW3     29.96F HX 95
#LOWDEN 2SE     N/A         102 56  22  W3      29.86F HX 101
#PLEASANT VIEW 1N/A         99  43  15  SW2     29.89F HX 95
#PRESCOTT       N/A         102 50  18  NW3     29.84F HX 99
#SUDBURY        N/A         102 N/A N/A N6      N/A
#WHITMAN COLLEGEN/A         101 48  17  N1      29.90F HX 98
#WAITSBURG 8N   N/A         108 34   8  CALM    29.79F HX 102
#WALLA WALLA 5E N/A         105  0   2  SW6     N/A    HX 98
#WALLA WALLA U  N/A         103 48  16  CALM    29.84F HX 100
#WHITMAN MISSIONN/A         102 50  18  CALM    29.86F HX 99
$$

WAZ030-310010-
BLUE MOUNTAINS...WASHINGTON

CITY            SKY/WX      TMP DP  RH  WIND    PRES   REMARKS
$$

ORZ009-041-WAZ024-310010-
COLUMBIA RIVER GORGE

CITY            SKY/WX      TMP DP  RH  WIND    PRES   REMARKS
HOOD RIVER AP   SUNNY       90  55  31  W10     29.96F HX 88
THE DALLES AP   SUNNY       96  53  24  N17G26  29.91F HX 94
#ARLINGTON AIRPON/A         102 30   8  W15     N/A    HX 96
#ARLINGTON HS   N/A         105 34   9  CALM    29.75F HX 99
#CELILO DOT     N/A         100 55  23  N5      N/A    HX 99
#MOSIER 1S      N/A         92  44  19  W6      30.03S HX 88
#MURDOCK        N/A         93  58  31  W18     29.91F HX 92
#RUFUS DOT      N/A         N/A N/A N/A SW6     N/A

$$

ORZ510-310010-
NORTH CENTRAL OREGON

CITY            SKY/WX      TMP DP  RH  WIND    PRES   REMARKS
#CHENOWITH 1W   N/A         86  51  30  W22     N/A
#COW CYN RST AREN/A         93  32  12  SW12    N/A    HX 89
#DUFUR 9E       N/A         88  36  16  NW15    29.94F
#GRASS VALLEY 1SN/A         96  46  18  NW7     29.91S HX 92
#MAUPIN SCHOOL  N/A         102 40  12  W5      29.96F HX 97
#MORO SCHOOL    N/A         95  48  20  W12     30.01F HX 91
#SHANIKO 5WSW   N/A         94  43  17  N6      N/A    HX 90
#SHANIKO 4NW    N/A         90  33  13  N7      30.14F HX 86
#TYGH VALLEY 2NEN/A         100 49  18  N10     29.86F HX 97
#WAPANITIA AIRPON/A         97  43  16  N2      29.88F HX 93
#WASCO DOT      N/A         101 48  17  NW9     N/A    HX 98
#WASCO 5NE      N/A         101 37  11  W3      29.88F HX 96
$$

ORZ511-310010-
CENTRAL OREGON

CITY            SKY/WX      TMP DP  RH  WIND    PRES   REMARKS
BEND AIRPORT    MOCLDY      91  39  16  N12     30.11F HX 87
MADRAS AIRPORT  SUNNY       95  36  13  N6      30.06F HX 90
REDMOND AIRPORT PTCLDY      95  37  13  N12     30.07F HX 90
#BEND 6E        N/A         89  38  17  CALM    29.79F
#BEND 1SW       N/A         88  40  19  N3      N/A
#BEND-AWBREY    N/A         90  44  20  SE5     29.89F HX 86
#BEND-KIM LN    N/A         91  46  21  NE5     30.08F HX 87
#CULVER         N/A         95  42  16  N6      30.01F HX 91
#LAKE BILLY CHINN/A         95  13   5  NW9     30.03F HX 90
#POWELL BUTTE 3EN/A         91  42  18  N3      N/A    HX 87
#PRINEVILLE 3N  N/A         93  47  21  CALM    29.85F HX 89


ORZ509-310010-
EAST SLOPES OF OREGON CASCADES

CITY            SKY/WX      TMP DP  RH  WIND    PRES   REMARKS
#BLUE BOX PASS  N/A         87  27  11  W2      N/A
#BLACK BUTTE RNCN/A         94  47  20  CALM    29.90F HX 90
#CAMP SHERMAN   N/A         95  43  17  CALM    29.91F HX 91
#LA PINE DOT    N/A         87  33  15  E2      N/A
#LA PINE 4NW    N/A         87  48  26  CALM    29.95F
#LAVA BUTTE DOT N/A         87  46  24  CALM    N/A
#SISTERS AIRPOR N/A         93  56  29  N7      30.07F HX 91
#SISTERS ODOT   N/A         93  N/A N/A SW1     N/A
#SISTERS 3N     N/A         92  48  22  E2      N/A    HX 89
#SUNRIVER       N/A         88  50  27  S1      29.84S
#SUNRIVER AP    N/A         87  53  31  CALM    29.91S
#SUTTLE LK DOT  N/A         92  54  28  W15     N/A    HX 90
#TUMALO 3W      N/A         90  43  20  E3      29.77F HX 86
#WANOGA BUTTE D N/A         74  43  33  CALM    N/A

$$

ORZ044-310010-
LOWER COLUMBIA BASIN...OREGON

CITY            SKY/WX      TMP DP  RH  WIND    PRES   REMARKS
HERMISTON       MOCLDY      101 46  16  N6      29.90F HX 97
#BOARDMAN SCHOOLN/A         97  48  19  CALM    29.85F HX 94
#BOARDMAN 3W    N/A         100 61  28  NE5     29.59F HX 101
#BOARDMAN 8SW   N/A         103 46  15  SW2     29.85F HX 99
#IONE SCHOOL    N/A         99  39  13  W7      29.92F HX 94
#IRRIGON 4NW    N/A         102 46  15  N5      N/A    HX 98
#UMATILLA SCHOOLN/A         105 69  32  W3      29.95F HX 113
#UMATILLA       N/A         100 52  20  CALM    29.87F HX 97
$$

ORZ507-310010-
NORTHERN FOOTHILLS OF THE BLUES

CITY            SKY/WX      TMP DP  RH  WIND    PRES   REMARKS
PENDLETON AIRPT PTCLDY      102 40  12  N13     29.95F HX 97
#ADAMS 3WNW     N/A         100 42  14  CALM    29.84F HX 96
#ATHENA         N/A         98  46  17  N1      29.88F HX 94
#HELIX SCHOOL   N/A         97  46  18  N2      29.85F HX 93
#HELIX 3N       N/A         96  44  17  N15     29.96F HX 92
#HOLDMAN 5SE    N/A         99  46  17  W3      29.96F HX 95
#HOLDMAN 6E     N/A         99  39  13  SE7     29.68F HX 94
#M-F FERNDALE   N/A         107 54  18  CALM    29.92F HX 106
#M-F GROVE ELEM N/A         100 42  14  CALM    29.93F HX 96
#M-FREEWATER 5SEN/A         97  52  22  CALM    29.95F HX 94
#PDT AQUATIC CTRN/A         99  45  16  N6      29.89F HX 95
#PENDLETON DNTN N/A         102 49  17  CALM    29.89S HX 99
#PDT SUNRIDGE   N/A         103 46  15  NW7     29.94F HX 99
#PENDLETON 7NW  N/A         96  59  29  CALM    27.76S HX 95
#PILOT ROCK     N/A         98  47  18  N6      29.98F HX 94
#TUTUILLA       N/A         100 50  19  N5      29.80F HX 97
#UMAPINE 2E     N/A         102 56  22  W1      29.88F HX 101
#WESTON SCHOOL  N/A         96  37  13  E7      29.95F HX 91

$$

ORZ508-310010-
SOUTHERN FOOTHILLS OF THE BLUES

CITY            SKY/WX      TMP DP  RH  WIND    PRES   REMARKS
#AJAX           N/A         97  34  11  N9      29.94F HX 92
#CONDON SCHOOL  N/A         94  39  15  N7      30.02F HX 90
#CONDON 5W      N/A         91  37  15  NW7     30.07F HX 87
#FOSSIL SCHOOL  N/A         95  43  17  W1      30.01F HX 91
#HEPPNER 4NE    N/A         93  42  17  NW12    29.85F HX 89
#LEXINGTON 2SE  N/A         99  48  18  NW3     29.93F HX 96
#MIKKALO        N/A         97  38  13  NW12    30.01F HX 92
#OLEX 4N        N/A         100 34  10  W7      29.92F HX 95
#RUGGS 5NE      N/A         98  -4   2  N8      30.23S HX 93
#RUGGS 2SW      N/A         95  40  15  N8      29.89F HX 91

$$

ORZ502-503-310010-
BLUE MOUNTAINS

CITY            SKY/WX      TMP DP  RH  WIND    PRES   REMARKS
MEACHAM         PTCLDY      92  39  16  VRB6    30.13F HX 88
#BATTLE MTN DOT N/A         88  56  34  N5      N/A
#HARDMAN 10S    N/A         90  42  19  N5      30.20F HX 86
#HEPPNER 15SE   N/A         89  45  22  CALM    30.08F
#LADD CYN SMT   N/A         94  45  19  NW6     N/A    HX 90
#LADD CREEK ODOTN/A         94  55  27  NE6     N/A    HX 92
#LONG CREEK HS  N/A         89  38  17  NW5     30.05F
#N POWDER DOT   N/A         86  58  39  W8      N/A
#PIKES PEAK     N/A         89  44  21  N1      27.99S
#TROY SCHOOL    N/A         102 44  14  E1      29.70F HX 98
#UKIAH          N/A         93  46  20  N8      29.88F HX 89
#WESTON 4E      N/A         93  43  18  NW2     29.81F HX 89
$$

ORZ505-310010-
JOHN DAY BASIN

CITY            SKY/WX      TMP DP  RH  WIND    PRES   REMARKS
JOHN DAY        MOCLDY      95  35  12  SW6     30.11F HX 90
#MONUMENT HS    N/A         99  41  14  NW8     29.70F HX 95
#MT. VERNON 5SE N/A         88  39  18  S1      30.09F
#WINLOCK        N/A         95  42  16  S3      30.14F HX 91
$$

ORZ506-310010-
OCHOCO AND JOHN DAY HIGHLANDS

CITY            SKY/WX      TMP DP  RH  WIND    PRES   REMARKS
#BUCK CREEK DOT N/A         94  41  16  W3      N/A    HX 90
#HORSE RIDGE DO N/A         88  31  13  N6      N/A
#KEYES SMT DOT  N/A         83  45  26  E6      N/A
#PINE MTN OBS   N/A         78  38  24  N1      N/A
#PRAIRIE CITY   N/A         91  40  17  SE15    29.83F HX 87
#SENECA 9NW     N/A         88  39  18  CALM    29.91F
$$

ORZ049-310010-
GRANDE RONDE VALLEY

CITY            SKY/WX      TMP DP  RH  WIND    PRES   REMARKS
LA GRANDE       PTCLDY      99  43  15  SW3     30.04F HX 95
#COVE           N/A         95  49  21  CALM    29.96F HX 92
#COVE SCHOOL    N/A         95  43  17  SW1     30.03F HX 91
#COVE 6NW       N/A         95  45  18  CALM    29.91F HX 91
#ELGIN 3N       N/A         95  46  19  SW3     29.76F HX 91
#ELGIN 1E       N/A         98  49  19  S2      N/A    HX 95
#IMBLER SCHOOL  N/A         95  45  18  CALM    29.99F HX 91
#ISLAND CITY 4N N/A         96  52  23  NE8     29.80F HX 93
#LADD CYN DOT   N/A         96  53  24  W2      N/A    HX 94
#UNION 1S       N/A         96  41  15  NW2     29.78F HX 92
$$

ORZ050-310010-
WALLOWA COUNTY

CITY            SKY/WX      TMP DP  RH  WIND    PRES   REMARKS
#ENTERPRISE AP  N/A         83  38  20  S8      30.08S
#ENTERPRISE HS  N/A         84  49  30  S2      30.11F
#IMNAHA SCHOOL  N/A         97  36  12  CALM    29.93F HX 92
#IMNAHA 10S     N/A         95  40  15  NE2     30.03F HX 91
#JOSEPH 3N      N/A         83  46  27  S9      30.16F
#JOSEPH 3W      N/A         82  42  24  CALM    30.04F
#LOSTINE        N/A         92  46  21  S6      29.69F HX 88
#MT HOWARD 8000 N/A         65  37  35  CALM    30.48F
#PROMISE 1S     N/A         89  51  27  SE3     29.99F
#SHEEP RDG 7000 N/A         72  38  29  CALM    29.90F
#WALLOWA SCHOOL N/A         94  37  14  CALM    30.75F HX 90



$$



USA.gov is the U.S. government's official web portal to all federal, state and local government web resources and services.